Location: Mount Cross
(36.6390°N, 79.4878°W)
Time: 18:22:28
(UTC+00:00)

Courier 1B Rocket - Pass Details

Date: 23 March 2023
Orbit: 920 x 1202 km, 28.2° (Epoch: 08 June)

Event Time Altitude Azimuth Distance (km) Brightness Sun altitude
Rises 05:58:15 0° 263° (W) 3,588 - -51.6°
Reaches altitude 10° 06:01:11 10° 253° (WSW) 2,621 - -51.5°
Maximum altitude 06:06:34 31° 193° (SSW) 1,558 - -51.2°
Drops below altitude 10° 06:11:57 10° 134° (SE) 2,612 - -50.9°
Sets 06:14:51 0° 124° (ESE) 3,572 - -50.7°
